Location: Heiligenberg
(48.5381°N, 7.3897°E)
Time: 23:45:32
(UTC+00:00)

USA 229 - Pass Details

Date: 26 May 2022
Orbit: 938 x 1274 km, 63.4° (Epoch: 24 May)

Event Time Altitude Azimuth Distance (km) Brightness Sun altitude
Rises 01:01:08 0° 315° (NW) 3,990 7.0 -17.3°
Reaches altitude 10° 01:03:57 10° 308° (NW) 3,075 6.3 -17.1°
Maximum altitude 01:10:42 40° 243° (WSW) 1,733 4.4 -16.6°
Enters shadow 01:15:15 21° 189° (S) 2,476 5.0 -16.3°
